Погода в Фий

Россия / Республика Дагестан     41°17′21″N   47°33′51″E
темп.,
°C
ветер,
м/с
пор.,
м/с
влажн.,
%
обл.,
%
осадки,
мм/ч
давл.,
гПа
погр.,
м
7 марта, вс
вс700:00−6зсз24471 0.0 101338
03:00−6ссз34503 0.0 101236
06:00−6ссз346267 0.0 101332
09:00−3з337076 0.0 1016298
12:00−2зюз457633 0.0 1018923
15:00−2юз347139 0.1 1018977
18:00−7ююз458655 0.1 1020127
21:00−8ю349878 2.8 1023146
8 марта, пн
пн800:00−10ю239789 0.6 102396
03:00−11ююз129587 0.8 102244
06:00−12ююв129448 0.0 102231
09:00−6ю339142 0.0 1020188
12:00−4ю339636 0.0 1017268
15:00−5ююз339666 0.1 1014233
18:00−8ю229484 0.0 101461
21:00−7юз139586 1.5 101699
9 марта, вт
вт900:00−9з1296100 0.1 101659
03:00−11ссз235967 0.1 101524
06:00−12сз23540 0.0 101628
09:00−7зюз34710 0.0 1016443
12:00−6зюз46665 0.0 10161065
15:00−6зюз49562 0.0 10161354
18:00−12ссз23580 0.0 101832
21:00−13з12680 0.0 102035
10 марта, ср
ср1000:00−14зсз23740 0.0 102136
03:00−14ссз34771 0.0 102135
06:00−14ссз34640 0.0 102233
09:00−8з34650 0.0 1023379
12:00−6юз45670 0.0 1021908
15:00−6юз45681 0.0 1020894
18:00−12юз23834 0.0 102051
21:00−12з23734 0.0 102143
11 марта, чт
чт1100:00−12зюз13741 0.0 101943
03:00−10юз238839 0.1 101774
06:00−10ююз239382 0.1 101665
09:00−7ю459491 1.4 1016301
12:00−5ю5696100 2.8 1014484
15:00−6ю3495100 4.4 1012342
18:00−9юв1299100 1.1 1012109
21:00−15ссв6592100 2.6 1015143